DW6061 Weather Reports


Display with metric or nautical units.
time (UTC)temp
F
wind
direction
speed
MPH
gust
MPH
rain 1hr
in
rain 24hr
in
rain mn
in
humidity
%
barometer
mb
20260507025013 59 285 1.0 3.0 0.00 0.00 0.00 80 1016.2
20260507023952 60 272 1.0 4.0 0.00 0.00 0.00 78 1016.1
20260507023012 62 297 1.0 3.0 0.00 0.00 0.00 77 1016.1
20260507021951 63 261 1.0 3.0 0.00 0.00 0.00 75 1016.0
20260507020952 64 218 1.0 4.0 0.00 0.00 0.00 74 1016.0
20260507015952 65 250 1.0 6.0 0.00 0.00 0.00 72 1015.9
20260507014952 66 253 1.0 6.0 0.00 0.00 0.00 71 1015.9
20260507013951 67 265 1.0 5.0 0.00 0.00 0.00 70 1015.9
20260507012954 67 285 2.0 4.0 0.00 0.00 0.00 68 1015.9
20260507012014 68 298 2.0 5.0 0.00 0.00 0.00 68 1015.9
20260507011014 69 183 1.0 8.0 0.00 0.00 0.00 67 1015.9
20260507005954 69 276 2.0 5.0 0.00 0.00 0.00 65 1015.8
20260507004953 70 174 1.0 5.0 0.00 0.00 0.00 64 1015.7
20260507003953 71 333 2.0 6.0 0.00 0.00 0.00 62 1015.6
20260507002954 73 264 1.0 7.0 0.00 0.00 0.00 61 1015.6
20260507002014 74 293 1.0 6.0 0.00 0.00 0.00 59 1015.5
20260507000954 75 267 1.0 6.0 0.00 0.00 0.00 59 1015.6
20260506235955 75 229 1.0 7.0 0.00 0.00 0.00 58 1015.4
20260506234955 76 224 1.0 5.0 0.00 0.00 0.00 57 1015.4
20260506233954 76 226 1.0 7.0 0.00 0.00 0.00 56 1015.5
20260506232954 77 295 2.0 5.0 0.00 0.00 0.00 55 1015.6
20260506232012 77 37 1.0 3.0 0.00 0.00 0.00 55 1015.5
20260506230955 78 186 1.0 4.0 0.00 0.00 0.00 54 1015.6
20260506225954 79 241 2.0 7.0 0.00 0.00 0.00 53 1015.7
20260506224954 79 153 1.0 4.0 0.00 0.00 0.00 54 1015.7
20260506223955 77 207 1.0 4.0 0.00 0.00 0.00 55 1015.8
20260506222954 77 167 3.0 8.0 0.00 0.00 0.00 54 1015.9
20260506221954 76 175 2.0 8.0 0.00 0.00 0.00 54 1015.9
20260506221014 77 161 3.0 8.0 0.00 0.00 0.00 55 1015.9
20260506215953 76 156 4.0 11.0 0.00 0.00 0.00 54 1016.1
20260506214954 77 177 3.0 7.0 0.00 0.00 0.00 55 1016.2
20260506213954 75 141 4.0 9.0 0.00 0.00 0.00 56 1016.4
20260506212954 75 173 3.0 7.0 0.00 0.00 0.00 55 1016.5
20260506211954 76 142 3.0 8.0 0.00 0.00 0.00 54 1016.6
20260506211015 76 162 2.0 7.0 0.00 0.00 0.00 55 1016.6
20260506205954 77 151 3.0 7.0 0.00 0.00 0.00 54 1016.7
20260506204954 74 149 3.0 10.0 0.00 0.00 0.00 55 1016.7
20260506203952 76 155 3.0 6.0 0.00 0.00 0.00 57 1016.8
20260506202954 74 142 4.0 10.0 0.00 0.00 0.00 57 1017.0
20260506201954 74 165 4.0 8.0 0.00 0.00 0.00 57 1017.2
20260506200954 75 152 1.0 3.0 0.00 0.00 0.00 58 1017.2
20260506195954 74 218 1.0 3.0 0.00 0.00 0.00 59 1017.3
20260506194954 76 192 1.0 3.0 0.00 0.00 0.00 55 1017.4
20260506193955 75 206 1.0 3.0 0.00 0.00 0.00 57 1017.4
20260506192954 74 212 1.0 3.0 0.00 0.00 0.00 59 1017.5
20260506191952 71 231 0.0 2.0 0.00 0.00 0.00 59 1017.6
20260506190954 71 228 1.0 4.0 0.00 0.00 0.00 62 1017.7
20260506185955 70 224 1.0 5.0 0.00 0.00 0.00 62 1017.7
20260506184954 71 216 2.0 3.0 0.00 0.00 0.00 60 1017.7
20260506183954 70 155 2.0 4.0 0.00 0.00 0.00 62 1017.8
20260506182954 71 0.0 0.0 0.00 0.00 0.00 61 1017.9
20260506181954 69 0.0 0.0 0.00 0.00 0.00 63 1017.9
20260506180954 69 0.0 0.0 0.00 0.00 0.00 65 1018.0
20260506175952 68 0.0 0.0 0.00 0.00 0.00 66 1018.0
20260506174954 67 0.0 0.0 0.00 0.00 0.00 70 1018.0
20260506173954 64 0.0 0.0 0.00 0.00 0.00 73 1018.0
20260506172954 64 0.0 0.0 0.00 0.00 0.00 71 1018.0
20260506172014 64 0.0 0.0 0.00 0.00 0.00 72 1018.1
20260506170954 64 0.0 0.0 0.00 0.00 0.00 74 1018.1
20260506165954 63 0.0 0.0 0.00 0.00 0.00 74 1018.1
20260506164954 61 0.0 0.0 0.00 0.00 0.00 76 1018.2
20260506162954 60 0.0 0.0 0.00 0.00 0.00 77 1018.3
20260506162035 59 0.0 0.0 0.00 0.00 0.00 81 1018.2
20260506160954 58 0.0 0.0 0.00 0.00 0.00 82 1018.3
20260506155954 57 0.0 0.0 0.00 0.00 0.00 84 1018.3
20260506154954 56 0.0 0.0 0.00 0.00 0.00 85 1018.3
20260506153954 56 0.0 0.0 0.00 0.00 0.00 85 1018.3
20260506152954 56 0.0 0.0 0.00 0.00 0.00 85 1018.3
20260506151953 55 0.0 0.0 0.00 0.00 0.00 86 1018.2
20260506150954 55 0.0 0.0 0.00 0.00 0.00 87 1018.3
20260506150034 54 0.0 0.0 0.00 0.00 0.00 88 1018.3
20260506144954 54 0.0 0.0 0.00 0.00 0.00 89 1018.3
20260506143954 54 0.0 0.0 0.00 0.00 0.00 90 1018.4
20260506142954 53 0.0 0.0 0.00 0.00 0.00 91 1018.4
20260506141954 53 0.0 0.0 0.00 0.00 0.00 91 1018.3
20260506140954 52 0.0 0.0 0.00 0.00 0.00 92 1018.2
20260506140013 52 0.0 0.0 0.00 0.00 0.00 93 1018.1
20260506134954 51 0.0 0.0 0.00 0.00 0.00 93 1017.9
20260506133955 51 0.0 0.0 0.00 0.00 0.00 93 1017.8
20260506132954 51 0.0 0.0 0.00 0.00 0.00 93 1017.6
20260506131954 51 0.0 0.0 0.00 0.00 0.00 92 1017.6
20260506130952 51 0.0 0.0 0.00 0.00 0.00 92 1017.5
20260506125954 51 0.0 0.0 0.00 0.00 0.00 92 1017.4
20260506124954 51 0.0 0.0 0.00 0.00 0.00 92 1017.4
20260506124013 51 0.0 0.0 0.00 0.00 0.00 92 1017.3
20260506123014 52 0.0 0.0 0.00 0.00 0.00 92 1017.3
20260506121955 52 0.0 0.0 0.00 0.00 0.00 91 1017.2
20260506120954 52 0.0 0.0 0.00 0.00 0.00 91 1017.1
20260506115954 52 0.0 0.0 0.00 0.00 0.00 91 1017.0
20260506114952 52 0.0 0.0 0.00 0.00 0.00 91 1017.0
20260506113954 52 0.0 0.0 0.00 0.00 0.00 91 1017.1
20260506112954 52 0.0 0.0 0.00 0.00 0.00 91 1017.1
20260506111953 52 0.0 0.0 0.00 0.00 0.00 91 1017.0
20260506110955 52 0.0 0.0 0.00 0.00 0.00 91 1016.9
20260506105954 52 0.0 0.0 0.00 0.00 0.00 91 1016.9
20260506104954 52 0.0 0.0 0.00 0.00 0.00 91 1016.8
20260506103954 52 0.0 0.0 0.00 0.00 0.00 91 1016.8
20260506103014 52 0.0 0.0 0.00 0.00 0.00 91 1016.8
20260506101954 52 0.0 0.0 0.00 0.00 0.00 91 1016.8
20260506100955 52 0.0 0.0 0.00 0.00 0.00 91 1016.9
20260506095953 52 0.0 0.0 0.00 0.00 0.00 91 1016.8
20260506094954 52 0.0 0.0 0.00 0.00 0.00 91 1016.8
20260506093954 52 0.0 0.0 0.00 0.00 0.00 91 1017.0
20260506092955 52 0.0 0.0 0.00 0.00 0.00 91 1017.0
20260506092014 52 349 0.0 3.0 0.00 0.00 0.00 91 1016.9
20260506090952 52 346 1.0 3.0 0.00 0.00 0.00 91 1016.8
20260506085954 52 356 1.0 2.0 0.00 0.00 0.00 91 1016.7
20260506085015 52 342 0.0 2.0 0.00 0.00 0.00 90 1016.8
20260506083953 52 325 0.0 2.0 0.00 0.00 0.00 90 1016.8
20260506082954 52 342 0.0 2.0 0.00 0.00 0.00 90 1016.8
20260506082014 52 350 1.0 3.0 0.00 0.00 0.00 90 1016.8
20260506081014 53 352 1.0 2.0 0.00 0.00 0.00 89 1016.8
20260506072954 53 349 0.0 2.0 0.00 0.00 0.00 88 1016.5
20260506071953 53 352 1.0 2.0 0.00 0.00 0.00 88 1016.6
20260506070954 53 316 0.0 2.0 0.00 0.00 0.00 88 1016.5
20260506061954 54 297 0.0 4.0 0.00 0.00 0.00 87 1016.2
20260506060954 54 302 0.0 2.0 0.00 0.00 0.00 87 1016.1
20260506050952 54 0.0 1.0 0.00 0.00 0.00 86 1015.9
20260506045015 54 3 0.0 1.0 0.00 0.00 0.00 85 1015.8
20260506043954 54 306 0.0 1.0 0.00 0.00 0.00 84 1015.7
20260506042954 54 322 0.0 2.0 0.00 0.00 0.00 84 1015.5
20260506041954 55 337 0.0 2.0 0.00 0.00 0.00 82 1015.5
20260506040954 55 334 1.0 3.0 0.00 0.00 0.00 82 1015.4
20260506035954 55 0 0.0 1.0 0.00 0.00 0.00 82 1015.2
20260506035014 55 352 0.0 2.0 0.00 0.00 0.00 82 1015.2
20260506033954 55 327 1.0 3.0 0.00 0.00 0.00 82 1015.1
20260506032954 55 312 0.0 3.0 0.00 0.00 0.00 82 1015.0
20260506031953 55 323 1.0 3.0 0.00 0.00 0.00 81 1014.8
20260506030954 55 312 1.0 5.0 0.00 0.00 0.00 80 1014.6
20260506030015 56 280 0.0 8.0 0.00 0.00 0.00 81 1014.5